Flag for Norway Weather past 2 weeks in Stavanger, Norway

Now
46 °F

Clear.


Feels Like: 46 °F
Forecast: 51 / 59 °F
Wind: No wind

Location: Stavanger / Sola

Current Time: Oct 2, 2014 at 5:01:24 AM

Latest Report: Oct 2, 2014 at 3:50 AM


Visibility: 10 mi

Pressure: 30.30 "Hg

Humidity: 93%

Dew point: 45 °F

Location of StavangerLocation

Historic Weather in Stavanger — Graph

°F

Stavanger temperature yesterday

Maximum temperature yesterday: 61 °F (at 10:50 AM)
Minimum temperature yesterday: 52 °F (at 11:50 PM)
Average temperature yesterday: 58 °F

Past Weeks' High & Low Weather Summary

 TemperatureHumidityPressure
High70 °F (Sep 17, 2:20 PM)100% (Sep 18, 12:50 AM)30.30 "Hg (Sep 18, 12:50 AM)
Low43 °F (Sep 23, 1:50 AM)45% (Sep 17, 10:20 AM)29.65 "Hg (Sep 24, 6:20 PM)
Average56 °F77%30.00 "Hg
* Reported Sep 17 3:50 AM — Oct 2 3:50 AM, Stavanger, Weather by CustomWeather, © 2014

Note: Actual official high and low records may vary slightly from our data, if they occured in-between our weather recording intervals... More about our weather records

Advertising

Stavanger weather history for previous 24 hours

 ConditionsComfort  
Time TempWeatherWind HumidityBarometerVisibility
3:50 AM
Oct 2
46 °FClear.No wind93%30.30 "Hg10 mi
2:50 AM48 °FPassing clouds.2 mph94%30.30 "HgN/A
1:50 AM50 °FPassing clouds.2 mph94%30.27 "HgN/A
1:20 AM50 °FPassing clouds.2 mph94%30.27 "HgN/A
12:50 AM52 °FPassing clouds.2 mph94%30.27 "HgN/A
12:20 AM52 °FPassing clouds.3 mph94%30.24 "HgN/A
11:50 PM
Oct 1
52 °FPassing clouds.3 mph94%30.24 "HgN/A
11:20 PM54 °FPassing clouds.3 mph88%30.24 "HgN/A
10:50 PM54 °FPartly cloudy.7 mph88%30.21 "HgN/A
10:20 PM54 °FPassing clouds.7 mph94%30.21 "HgN/A
9:50 PM54 °FPartly cloudy.10 mph88%30.21 "HgN/A
9:20 PM55 °FOvercast.10 mph88%30.18 "HgN/A
8:50 PM55 °FDrizzle. Mostly cloudy.15 mph88%30.18 "HgN/A
8:20 PM55 °FPartly cloudy.12 mph100%30.15 "Hg4 mi
7:50 PM57 °FLight rain. Broken clouds.9 mph94%30.12 "Hg4 mi
7:20 PM57 °FDrizzle. Fog.10 mph94%30.12 "Hg2 mi
6:50 PM57 °FDrizzle. Fog.9 mph100%30.09 "Hg2 mi
6:20 PM57 °FDrizzle. Broken clouds.13 mph94%30.09 "Hg4 mi
5:50 PM57 °FDrizzle. Broken clouds.15 mph94%30.09 "Hg4 mi
5:20 PM59 °FDrizzle. Broken clouds.13 mph94%30.09 "Hg5 mi
4:50 PM59 °FDrizzle. Partly sunny.17 mph88%30.09 "Hg5 mi
4:20 PM61 °FBroken clouds.14 mph88%30.09 "HgN/A
3:50 PM61 °FDrizzle. Partly sunny.15 mph88%30.09 "HgN/A
3:20 PM61 °FPartly sunny.15 mph83%30.09 "HgN/A
2:50 PM59 °FDrizzle. Partly sunny.16 mph88%30.09 "HgN/A
2:20 PM59 °FScattered showers. Broken clouds.14 mph88%30.12 "HgN/A
1:50 PM61 °FScattered showers. Partly sunny.14 mph77%30.12 "HgN/A
1:20 PM59 °FScattered showers. Partly sunny.15 mph82%30.12 "HgN/A
12:50 PM59 °FDrizzle. Broken clouds.12 mph82%30.12 "HgN/A
12:20 PM59 °FBroken clouds.15 mph82%30.12 "HgN/A
11:50 AM61 °FPartly sunny.16 mph77%30.12 "HgN/A
11:20 AM61 °FPartly sunny.15 mph72%30.12 "HgN/A
10:50 AM61 °FPartly sunny.16 mph72%30.12 "HgN/A
10:20 AM59 °FPartly sunny.20 mph77%30.12 "HgN/A
9:50 AM59 °FBroken clouds.17 mph72%30.12 "HgN/A
9:20 AM59 °FPartly sunny.18 mph72%30.12 "HgN/A
8:50 AM59 °FPartly sunny.17 mph72%30.12 "HgN/A
8:20 AM59 °FPassing clouds.17 mph68%30.12 "HgN/A
7:50 AM59 °FPassing clouds.15 mph68%30.12 "HgN/A
7:20 AM57 °FPassing clouds.14 mph67%30.12 "HgN/A
6:50 AM57 °FPassing clouds.13 mph67%30.12 "HgN/A
6:20 AM57 °FPartly cloudy.14 mph67%30.12 "HgN/A
5:50 AM57 °FPassing clouds.12 mph67%30.15 "HgN/A
5:20 AM57 °FPassing clouds.13 mph63%30.15 "HgN/A
Weather by CustomWeather, © 2014

See weather overviewHow to use our weather pages